Location: Peterborough
(44.3091°N, 78.3197°W)
Time: 06:02:51
(UTC-04:00)

Explorer 7 - All Passes

Search period start: 22 March 2023 00:00
Search period end: 01 April 2023 00:00
Orbit: 478 x 657 km, 50.3° (Epoch: 21 March)

Date Brightness Start Highest point End Pass type
(mag) Time Alt. Az. Time Alt. Az. Time Alt. Az.
22 Mar - 00:54:07 10° WNW 00:58:01 70° SSW 01:01:45 10° SE night (unlit)
22 Mar - 02:36:04 10° WSW 02:37:32 12° SW 02:38:59 10° SSW night (unlit)
22 Mar - 18:12:34 10° SSW 18:16:29 30° SE 18:20:14 10° ENE daylight
22 Mar - 19:52:10 10° WSW 19:56:32 68° NNW 20:00:40 10° ENE visible
22 Mar - 21:33:18 10° WNW 21:37:12 35° N 21:40:54 10° ENE visible
22 Mar - 23:14:04 10° WNW 23:17:59 46° NNE 23:21:43 10° E visible
23 Mar - 00:54:26 10° WNW 00:58:12 47° SW 01:01:50 10° SE night (unlit)
23 Mar - 18:12:21 10° SSW 18:16:37 43° SE 18:20:41 10° ENE daylight
23 Mar - 19:52:31 10° W 19:56:50 54° NNW 20:00:54 10° ENE visible
23 Mar - 21:33:43 10° WNW 21:37:36 34° N 21:41:17 10° ENE visible
23 Mar - 23:14:18 10° WNW 23:18:19 58° NNE 23:22:07 10° E visible
24 Mar - 00:54:49 10° WNW 00:58:21 32° SW 01:01:43 10° SSE night (unlit)
24 Mar - 16:35:11 10° SSE 16:37:08 13° SE 16:39:04 10° ESE daylight
24 Mar - 18:12:19 10° SW 18:16:47 60° SSE 18:21:00 10° ENE daylight
24 Mar - 19:52:56 10° W 19:57:10 45° NNW 20:01:09 10° ENE visible
24 Mar - 21:34:04 10° WNW 21:37:59 36° N 21:41:41 10° ENE visible
24 Mar - 23:14:32 10° WNW 23:18:36 75° NNE 23:22:26 10° ESE visible
25 Mar - 00:55:21 10° W 00:58:25 22° SW 01:01:22 10° S night (unlit)
25 Mar - 16:33:57 10° S 16:37:09 19° SE 16:40:15 10° E daylight
25 Mar - 18:12:26 10° WSW 18:16:58 82° SSE 18:21:16 10° ENE daylight
25 Mar - 19:53:20 10° W 19:57:29 40° N 20:01:25 10° ENE visible
25 Mar - 21:34:22 10° WNW 21:38:20 39° N 21:42:05 10° E visible
25 Mar - 23:14:45 10° WNW 23:18:49 81° SSW 23:22:40 10° ESE visible
26 Mar - 00:56:12 10° W 00:58:25 15° SW 01:00:36 10° SSW night (unlit)
26 Mar - 16:33:18 10° SSW 16:37:10 27° SE 16:40:54 10° E daylight
26 Mar - 18:12:38 10° WSW 18:17:11 77° NNW 18:21:28 10° ENE daylight
26 Mar - 19:53:45 10° WNW 19:57:50 37° N 20:01:42 10° ENE visible
26 Mar - 21:34:36 10° WNW 21:38:40 44° NNE 21:42:29 10° E visible
26 Mar - 23:15:00 10° WNW 23:18:59 56° SW 23:22:45 10° SE visible
27 Mar - 16:32:58 10° SSW 16:37:15 38° SE 16:41:21 10° ENE daylight
27 Mar - 18:12:55 10° WSW 18:17:24 61° NNW 18:21:40 10° ENE daylight
27 Mar - 19:54:07 10° WNW 19:58:09 36° N 20:02:00 10° ENE visible
27 Mar - 21:34:49 10° WNW 21:38:57 53° NNE 21:42:51 10° E visible
27 Mar - 23:15:17 10° WNW 23:19:05 39° SW 23:22:41 10° SSE visible
28 Mar - 14:56:30 10° SE 14:57:46 11° SE 14:59:00 10° ESE daylight
28 Mar - 16:32:49 10° SW 16:37:19 53° SE 16:41:39 10° ENE daylight
28 Mar - 18:13:15 10° W 18:17:40 50° NNW 18:21:51 10° ENE daylight
28 Mar - 19:54:25 10° WNW 19:58:30 36° N 20:02:20 10° ENE daylight
28 Mar - 21:34:59 10° WNW 21:39:12 68° NNE 21:43:08 10° ESE visible
28 Mar - 23:15:41 10° W 23:19:06 27° SW 23:22:23 10° SSE visible
29 Mar - 14:54:44 10° S 14:57:41 17° SE 15:00:35 10° E daylight
29 Mar - 16:32:48 10° SW 16:37:27 73° SSE 16:41:52 10° ENE daylight
29 Mar - 18:13:36 10° W 18:17:56 43° NNW 18:22:03 10° ENE daylight
29 Mar - 19:54:42 10° WNW 19:58:48 38° N 20:02:41 10° ENE daylight
29 Mar - 21:35:09 10° WNW 21:39:23 89° NE 21:43:21 10° ESE visible
29 Mar - 23:16:16 10° W 23:19:05 18° SW 23:21:47 10° S visible
30 Mar - 14:53:53 10° S 14:57:39 24° SE 15:01:19 10° E daylight
30 Mar - 16:32:55 10° WSW 16:37:35 85° NNW 16:42:02 10° ENE daylight
30 Mar - 18:13:57 10° WNW 18:18:12 39° N 18:22:15 10° ENE daylight
30 Mar - 19:54:54 10° WNW 19:59:05 43° NNE 20:03:02 10° E daylight
30 Mar - 21:35:19 10° WNW 21:39:31 67° SSW 21:43:26 10° SE visible
30 Mar - 23:17:24 10° WSW 23:18:59 12° SW 23:20:33 10° SSW visible
31 Mar - 14:53:24 10° SSW 14:57:37 33° SE 15:01:44 10° ENE daylight
31 Mar - 16:33:06 10° WSW 16:37:45 67° NNW 16:42:11 10° ENE daylight
31 Mar - 18:14:17 10° WNW 18:18:30 37° N 18:22:30 10° ENE daylight
31 Mar - 19:55:04 10° WNW 19:59:20 50° NNE 20:03:21 10° E daylight
31 Mar - 21:35:31 10° WNW 21:39:34 46° SW 21:43:23 10° SE visible
